NKS200 KMCO-KEWR

Flight info

Callsign NKS200
Flight time 2h 5m
Altitude 35000
Route FATHE4 VIYAP Q87 ALWZZ OGRAE Q99 QUART PHLBO4
Aircraft A321/M-SDE3FGHIRWY/LB1

Departure

Time 2026-05-05 08:30
Airport Orlando International Airport (KMCO)

Arrival

Time 2026-05-05 10:35
Airport Newark Liberty International Airport (KEWR)
Time Latitude Longitude Altitude Speed Heading
2026-05-05 08:12 28.42515 -81.30064 103 ft 0 kts 28°
2026-05-05 08:21 28.42497 -81.30077 102 ft 4 kts 28°
2026-05-05 08:21 28.42473 -81.30093 100 ft 4 kts 37°
2026-05-05 08:21 28.42455 -81.30113 100 ft 4 kts 66°
2026-05-05 08:21 28.42452 -81.30133 101 ft 0 kts 112°
2026-05-05 08:24 28.42446 -81.30118 103 ft 5 kts 112°
2026-05-05 08:24 28.42433 -81.30063 103 ft 9 kts 99°
2026-05-05 08:24 28.42446 -81.29965 102 ft 17 kts 65°
2026-05-05 08:24 28.42548 -81.29883 103 ft 15 kts 15°
2026-05-05 08:25 28.42588 -81.29811 102 ft 12 kts 122°
2026-05-05 08:25 28.42502 -81.29794 103 ft 15 kts 180°
2026-05-05 08:25 28.42395 -81.29793 102 ft 16 kts 180°
2026-05-05 08:25 28.42277 -81.29793 102 ft 17 kts 179°
2026-05-05 08:26 28.42152 -81.29791 102 ft 18 kts 179°
2026-05-05 08:26 28.42021 -81.29790 101 ft 19 kts 179°
2026-05-05 08:26 28.41883 -81.29788 102 ft 20 kts 179°
2026-05-05 08:26 28.41739 -81.29786 102 ft 21 kts 179°
2026-05-05 08:27 28.41591 -81.29785 102 ft 22 kts 180°
2026-05-05 08:27 28.41437 -81.29784 102 ft 22 kts 179°
2026-05-05 08:27 28.41279 -81.29782 101 ft 23 kts 179°
2026-05-05 08:27 28.41117 -81.29779 101 ft 24 kts 179°
2026-05-05 08:28 28.41002 -81.29778 100 ft 14 kts 180°
2026-05-05 08:28 28.40932 -81.29714 100 ft 16 kts 98°
2026-05-05 08:28 28.40943 -81.29584 99 ft 16 kts 53°
2026-05-05 08:28 28.41079 -81.29562 100 ft 41 kts 360°
2026-05-05 08:29 28.41622 -81.29568 106 ft 112 kts 359°
2026-05-05 08:29 28.42602 -81.29578 107 ft 166 kts 359°
2026-05-05 08:29 28.43808 -81.29574 616 ft 175 kts
2026-05-05 08:30 28.45756 -81.29021 1713 ft 177 kts 27°
2026-05-05 08:30 28.46877 -81.28428 2270 ft 181 kts 32°
2026-05-05 08:30 28.48034 -81.27680 2474 ft 202 kts 33°
2026-05-05 08:30 28.49311 -81.26816 2612 ft 225 kts 33°
2026-05-05 08:31 28.51259 -81.25579 2926 ft 258 kts 21°
2026-05-05 08:31 28.52463 -81.25276 3337 ft 266 kts
2026-05-05 08:31 28.54322 -81.25128 4101 ft 269 kts
2026-05-05 08:31 28.56204 -81.25105 4912 ft 271 kts 358°
2026-05-05 08:32 28.58095 -81.25173 5720 ft 273 kts 355°
2026-05-05 08:32 28.59988 -81.25420 6480 ft 275 kts 351°
2026-05-05 08:32 28.61905 -81.25730 6884 ft 280 kts 350°
2026-05-05 08:32 28.63853 -81.26031 7496 ft 282 kts 351°
2026-05-05 08:33 28.65783 -81.26304 8251 ft 285 kts 351°
2026-05-05 08:33 28.67762 -81.26573 8984 ft 288 kts 351°
2026-05-05 08:33 28.69765 -81.26845 9718 ft 292 kts 351°
2026-05-05 08:33 28.71799 -81.27126 10285 ft 301 kts 351°
2026-05-05 08:34 28.73956 -81.27431 10445 ft 324 kts 351°
2026-05-05 08:34 28.76275 -81.27759 10574 ft 347 kts 351°
2026-05-05 08:34 28.78736 -81.28103 10727 ft 366 kts 351°
2026-05-05 08:34 28.81304 -81.28458 11189 ft 374 kts 351°
2026-05-05 08:35 28.83894 -81.28818 11839 ft 377 kts 351°
2026-05-05 08:35 28.86518 -81.29131 12478 ft 381 kts 352°
2026-05-05 08:35 28.89176 -81.29376 13112 ft 385 kts 353°
2026-05-05 08:35 28.91866 -81.29585 13746 ft 389 kts 353°
2026-05-05 08:36 28.94575 -81.29781 14318 ft 392 kts 353°
2026-05-05 08:36 28.97312 -81.29984 14915 ft 395 kts 353°
2026-05-05 08:36 29.00062 -81.30204 15511 ft 398 kts 352°
2026-05-05 08:36 29.02830 -81.30472 16125 ft 400 kts 351°
2026-05-05 08:37 29.05603 -81.30779 16708 ft 402 kts 351°
2026-05-05 08:37 29.08400 -81.31107 17318 ft 405 kts 350°
2026-05-05 08:37 29.11212 -81.31438 17927 ft 408 kts 351°
2026-05-05 08:37 29.14045 -81.31700 18475 ft 411 kts 352°
2026-05-05 08:38 29.16911 -81.31888 18976 ft 414 kts 353°
2026-05-05 08:38 29.19794 -81.32036 19484 ft 415 kts 353°
2026-05-05 08:38 29.22691 -81.32171 19988 ft 417 kts 353°
2026-05-05 08:38 29.25593 -81.32313 20486 ft 418 kts 352°
2026-05-05 08:39 29.28503 -81.32470 20998 ft 420 kts 352°
2026-05-05 08:39 29.31399 -81.32637 21468 ft 421 kts 352°
2026-05-05 08:39 29.34330 -81.32813 21939 ft 423 kts 351°
2026-05-05 08:39 29.37274 -81.32992 22400 ft 424 kts 351°
2026-05-05 08:40 29.40231 -81.33176 22850 ft 426 kts 351°
2026-05-05 08:40 29.43199 -81.33359 23301 ft 427 kts 351°
2026-05-05 08:40 29.46169 -81.33543 23732 ft 429 kts 351°
2026-05-05 08:40 29.49166 -81.33730 24110 ft 430 kts 351°
2026-05-05 08:41 29.52118 -81.33910 24509 ft 431 kts 351°
2026-05-05 08:41 29.55121 -81.34089 24929 ft 432 kts 351°
2026-05-05 08:41 29.58121 -81.34267 25312 ft 432 kts 351°
2026-05-05 08:41 29.61121 -81.34443 25685 ft 433 kts 350°
2026-05-05 08:42 29.64135 -81.34619 26057 ft 434 kts 350°
2026-05-05 08:42 29.67150 -81.34795 26445 ft 434 kts 350°
2026-05-05 08:42 29.70173 -81.34970 26801 ft 435 kts 350°
2026-05-05 08:42 29.73200 -81.35145 27169 ft 436 kts 350°
2026-05-05 08:43 29.76233 -81.35321 27527 ft 437 kts 350°
2026-05-05 08:43 29.79276 -81.35496 27886 ft 437 kts 350°
2026-05-05 08:43 29.82307 -81.35666 28381 ft 434 kts 350°
2026-05-05 08:43 29.85314 -81.35835 28912 ft 432 kts 349°
2026-05-05 08:44 29.88309 -81.36005 29357 ft 430 kts 349°
2026-05-05 08:44 29.91296 -81.36176 29833 ft 428 kts 349°
2026-05-05 08:44 29.94262 -81.36346 30290 ft 426 kts 349°
2026-05-05 08:44 29.97208 -81.36513 30719 ft 422 kts 349°
2026-05-05 08:45 30.00125 -81.36676 31185 ft 418 kts 349°
2026-05-05 08:45 30.03014 -81.36840 31675 ft 413 kts 349°
2026-05-05 08:45 30.05867 -81.37003 32180 ft 407 kts 349°
2026-05-05 08:45 30.08675 -81.37164 32686 ft 402 kts 349°
2026-05-05 08:46 30.11415 -81.37321 33186 ft 396 kts 349°
2026-05-05 08:46 30.14150 -81.37479 33734 ft 392 kts 348°
2026-05-05 08:46 30.16855 -81.37636 34182 ft 387 kts 348°
2026-05-05 08:46 30.19536 -81.37794 34539 ft 384 kts 348°
2026-05-05 08:47 30.22199 -81.37955 34833 ft 383 kts 348°
2026-05-05 08:47 30.24865 -81.38116 35016 ft 384 kts 348°
2026-05-05 08:47 30.27539 -81.38275 35069 ft 385 kts 348°
2026-05-05 08:48 30.32893 -81.38588 35073 ft 385 kts 348°
2026-05-05 08:48 30.38246 -81.38894 35073 ft 385 kts 348°
2026-05-05 08:49 30.43602 -81.39209 35071 ft 385 kts 348°
2026-05-05 08:49 30.48961 -81.39514 35073 ft 385 kts 348°
2026-05-05 08:50 30.54287 -81.39789 35085 ft 385 kts 348°
2026-05-05 08:50 30.59645 -81.40064 35089 ft 386 kts 348°
2026-05-05 08:51 30.65010 -81.40346 35093 ft 386 kts 348°
2026-05-05 08:51 30.70387 -81.40629 35111 ft 386 kts 348°
2026-05-05 08:52 30.75761 -81.40917 35104 ft 387 kts 348°
2026-05-05 08:52 30.81138 -81.41206 35099 ft 387 kts 348°
2026-05-05 08:53 30.86528 -81.41490 35094 ft 388 kts 348°
2026-05-05 08:53 30.91922 -81.41776 35095 ft 388 kts 348°
2026-05-05 08:54 30.97315 -81.42064 35095 ft 389 kts 348°
2026-05-05 08:54 31.02728 -81.42354 35078 ft 390 kts 348°
2026-05-05 08:55 31.08150 -81.42644 35074 ft 391 kts 348°
2026-05-05 08:55 31.13592 -81.42937 35074 ft 391 kts 348°
2026-05-05 08:56 31.18995 -81.43231 35077 ft 391 kts 348°
2026-05-05 08:56 31.24486 -81.43238 35140 ft 404 kts 359°
2026-05-05 08:56 31.27265 -81.42421 35096 ft 421 kts 10°
2026-05-05 08:57 31.29974 -81.41014 35077 ft 428 kts 14°
2026-05-05 08:57 31.35391 -81.38061 35071 ft 430 kts 14°
2026-05-05 08:58 31.40825 -81.35110 35075 ft 431 kts 14°
2026-05-05 08:58 31.46270 -81.32160 35080 ft 432 kts 14°
2026-05-05 08:59 31.51727 -81.29195 35116 ft 433 kts 14°
2026-05-05 08:59 31.57206 -81.26217 35090 ft 435 kts 15°
2026-05-05 09:00 31.62686 -81.23237 35071 ft 438 kts 15°
2026-05-05 09:00 31.68217 -81.20211 35054 ft 440 kts 15°
2026-05-05 09:01 31.73776 -81.17162 35057 ft 441 kts 15°
2026-05-05 09:01 31.79347 -81.14114 35082 ft 442 kts 15°
2026-05-05 09:02 31.84935 -81.11056 35070 ft 443 kts 15°
2026-05-05 09:02 31.90528 -81.07983 35065 ft 444 kts 15°
2026-05-05 09:03 31.96137 -81.04898 35063 ft 444 kts 15°
2026-05-05 09:03 32.01736 -81.01818 35065 ft 444 kts 16°
2026-05-05 09:04 32.07327 -80.98705 35057 ft 444 kts 16°
2026-05-05 09:04 32.12907 -80.95567 35059 ft 444 kts 16°
2026-05-05 09:05 32.18456 -80.92442 35105 ft 445 kts 16°
2026-05-05 09:05 32.24050 -80.89301 35111 ft 445 kts 16°
2026-05-05 09:06 32.29648 -80.86161 35146 ft 445 kts 16°
2026-05-05 09:06 32.35251 -80.83010 35131 ft 446 kts 16°
2026-05-05 09:07 32.40860 -80.79848 35126 ft 446 kts 16°
2026-05-05 09:07 32.46460 -80.76695 35120 ft 446 kts 16°
2026-05-05 09:08 32.52059 -80.73524 35113 ft 446 kts 16°
2026-05-05 09:08 32.57651 -80.70348 35129 ft 446 kts 17°
2026-05-05 09:09 32.63217 -80.67196 35122 ft 446 kts 17°
2026-05-05 09:09 32.68826 -80.64021 35113 ft 446 kts 17°
2026-05-05 09:10 32.74422 -80.60813 35104 ft 447 kts 17°
2026-05-05 09:10 32.79986 -80.57500 35103 ft 448 kts 18°
2026-05-05 09:11 32.85549 -80.54160 35123 ft 448 kts 18°
2026-05-05 09:11 32.91130 -80.50825 35106 ft 449 kts 19°
2026-05-05 09:12 32.96728 -80.47496 35096 ft 450 kts 19°
2026-05-05 09:12 33.02339 -80.44158 35093 ft 451 kts 19°
2026-05-05 09:13 33.07959 -80.40795 35084 ft 452 kts 19°
2026-05-05 09:13 33.13546 -80.37448 35090 ft 453 kts 19°
2026-05-05 09:14 33.19178 -80.34073 35095 ft 453 kts 19°
2026-05-05 09:14 33.24812 -80.30694 35103 ft 453 kts 19°
2026-05-05 09:15 33.30444 -80.27305 35133 ft 453 kts 20°
2026-05-05 09:15 33.36088 -80.23904 35133 ft 454 kts 20°
2026-05-05 09:16 33.41700 -80.20524 35125 ft 454 kts 20°
2026-05-05 09:16 33.47340 -80.17119 35122 ft 454 kts 20°
2026-05-05 09:17 33.52989 -80.13704 35118 ft 455 kts 21°
2026-05-05 09:17 33.58643 -80.10291 35133 ft 455 kts 21°
2026-05-05 09:18 33.64307 -80.06861 35125 ft 456 kts 21°
2026-05-05 09:18 33.69973 -80.03418 35120 ft 456 kts 21°
2026-05-05 09:19 33.75644 -79.99967 35109 ft 457 kts 21°
2026-05-05 09:19 33.80355 -79.97098 35110 ft 457 kts 21°
2026-05-05 09:20 33.86033 -79.93631 35128 ft 457 kts 22°
2026-05-05 09:20 33.91701 -79.90168 35114 ft 456 kts 22°
2026-05-05 09:21 33.97361 -79.86708 35120 ft 456 kts 22°
2026-05-05 09:21 34.03020 -79.83244 35114 ft 456 kts 22°
2026-05-05 09:22 34.08653 -79.79793 35129 ft 457 kts 22°
2026-05-05 09:22 34.14314 -79.76311 35126 ft 457 kts 22°
2026-05-05 09:23 34.19982 -79.72816 35121 ft 457 kts 22°
2026-05-05 09:23 34.25648 -79.69324 35119 ft 457 kts 22°
2026-05-05 09:24 34.31325 -79.65830 35133 ft 457 kts 22°
2026-05-05 09:24 34.36997 -79.62329 35122 ft 457 kts 22°
2026-05-05 09:25 34.42664 -79.58814 35118 ft 457 kts 22°
2026-05-05 09:25 34.48292 -79.55324 35113 ft 457 kts 22°
2026-05-05 09:26 34.53956 -79.51812 35111 ft 457 kts 22°
2026-05-05 09:26 34.59592 -79.48201 35122 ft 459 kts 24°
2026-05-05 09:27 34.65155 -79.44404 35118 ft 459 kts 25°
2026-05-05 09:27 34.70869 -79.41052 35118 ft 452 kts 13°
2026-05-05 09:28 34.76969 -79.39543 35114 ft 447 kts
2026-05-05 09:28 34.83067 -79.38260 35122 ft 447 kts
2026-05-05 09:29 34.89203 -79.36950 35114 ft 448 kts
2026-05-05 09:29 34.95342 -79.35639 35079 ft 448 kts
2026-05-05 09:30 35.01488 -79.34332 35077 ft 448 kts
2026-05-05 09:30 35.07635 -79.33016 35089 ft 449 kts
2026-05-05 09:31 35.13785 -79.31686 35089 ft 449 kts
2026-05-05 09:31 35.19946 -79.30365 35118 ft 449 kts
2026-05-05 09:32 35.26106 -79.29041 35118 ft 449 kts
2026-05-05 09:32 35.32270 -79.27714 35124 ft 450 kts
2026-05-05 09:33 35.38399 -79.26390 35119 ft 450 kts
2026-05-05 09:33 35.44433 -79.25082 35110 ft 450 kts
2026-05-05 09:34 35.50611 -79.23745 35104 ft 450 kts
2026-05-05 09:34 35.56780 -79.22406 35105 ft 450 kts
2026-05-05 09:35 35.62952 -79.21071 35108 ft 450 kts
2026-05-05 09:35 35.72200 -79.18939 35103 ft 454 kts 12°
2026-05-05 09:36 35.77969 -79.15608 35116 ft 465 kts 31°
2026-05-05 09:36 35.83217 -79.11018 35098 ft 466 kts 31°
2026-05-05 09:37 35.88518 -79.06408 35096 ft 466 kts 31°
2026-05-05 09:37 35.93816 -79.01803 35090 ft 466 kts 31°
2026-05-05 09:38 35.99118 -78.97181 35088 ft 467 kts 31°
2026-05-05 09:38 36.04419 -78.92541 35095 ft 467 kts 31°
2026-05-05 09:39 36.09728 -78.87884 35099 ft 468 kts 31°
2026-05-05 09:39 36.15043 -78.83209 35097 ft 468 kts 31°
2026-05-05 09:40 36.20315 -78.78571 35096 ft 468 kts 31°
2026-05-05 09:40 36.25621 -78.73896 35095 ft 468 kts 31°
2026-05-05 09:41 36.30931 -78.69213 35093 ft 468 kts 31°
2026-05-05 09:41 36.36233 -78.64521 35088 ft 469 kts 32°
2026-05-05 09:42 36.41542 -78.59810 35090 ft 469 kts 31°
2026-05-05 09:42 36.46850 -78.55192 35095 ft 468 kts 30°
2026-05-05 09:43 36.52346 -78.50868 35088 ft 467 kts 27°
2026-05-05 09:43 36.57896 -78.46671 35074 ft 467 kts 27°
2026-05-05 09:44 36.63430 -78.42404 35076 ft 468 kts 28°
2026-05-05 09:44 36.68930 -78.38060 35098 ft 468 kts 28°
2026-05-05 09:45 36.74430 -78.33697 35086 ft 469 kts 28°
2026-05-05 09:45 36.79940 -78.29335 35077 ft 469 kts 28°
2026-05-05 09:46 36.85451 -78.24981 35070 ft 469 kts 28°
2026-05-05 09:46 36.90964 -78.20629 35099 ft 469 kts 28°
2026-05-05 09:47 36.96443 -78.16288 35052 ft 469 kts 28°
2026-05-05 09:47 37.01964 -78.11897 35051 ft 470 kts 28°
2026-05-05 09:48 37.07478 -78.07497 35046 ft 470 kts 28°
2026-05-05 09:48 37.12997 -78.03097 35058 ft 470 kts 28°
2026-05-05 09:49 37.18515 -77.98705 35050 ft 470 kts 29°
2026-05-05 09:49 37.24027 -77.94293 35039 ft 470 kts 29°
2026-05-05 09:50 37.29529 -77.89872 35040 ft 470 kts 29°
2026-05-05 09:50 37.35043 -77.85449 35050 ft 470 kts 29°
2026-05-05 09:51 37.40550 -77.81023 35057 ft 469 kts 29°
2026-05-05 09:51 37.46049 -77.76594 35055 ft 469 kts 29°
2026-05-05 09:52 37.51544 -77.72148 35055 ft 469 kts 29°
2026-05-05 09:52 37.57042 -77.67709 35071 ft 469 kts 29°
2026-05-05 09:53 37.62546 -77.63273 35059 ft 469 kts 29°
2026-05-05 09:53 37.68042 -77.58829 35040 ft 469 kts 29°
2026-05-05 09:54 37.73532 -77.54378 35044 ft 469 kts 29°
2026-05-05 09:54 37.78986 -77.49957 35046 ft 469 kts 29°
2026-05-05 09:55 37.84471 -77.45494 35046 ft 468 kts 29°
2026-05-05 09:55 37.89962 -77.41029 35042 ft 468 kts 29°
2026-05-05 09:56 37.95440 -77.36556 35040 ft 468 kts 29°
2026-05-05 09:56 38.00911 -77.32077 35033 ft 468 kts 29°
2026-05-05 09:57 38.06381 -77.27590 35018 ft 468 kts 29°
2026-05-05 09:57 38.11847 -77.23111 35015 ft 468 kts 29°
2026-05-05 09:58 38.17312 -77.18636 35006 ft 467 kts 29°
2026-05-05 09:58 38.22739 -77.14170 35020 ft 467 kts 29°
2026-05-05 09:59 38.28202 -77.09665 35016 ft 467 kts 29°
2026-05-05 09:59 38.33552 -77.04927 35008 ft 469 kts 33°
2026-05-05 10:00 38.38723 -76.99836 35007 ft 470 kts 34°
2026-05-05 10:00 38.43879 -76.94699 35016 ft 470 kts 34°
2026-05-05 10:01 38.49085 -76.89632 35009 ft 470 kts 33°
2026-05-05 10:01 38.54322 -76.84610 34999 ft 470 kts 33°
2026-05-05 10:02 38.59548 -76.79579 35002 ft 470 kts 33°
2026-05-05 10:02 38.64766 -76.74528 35007 ft 470 kts 33°
2026-05-05 10:03 38.69974 -76.69458 34991 ft 470 kts 34°
2026-05-05 10:03 38.75172 -76.64374 34988 ft 470 kts 34°
2026-05-05 10:04 38.80341 -76.59309 34987 ft 470 kts 34°
2026-05-05 10:04 38.85540 -76.54222 34989 ft 470 kts 34°
2026-05-05 10:05 38.90732 -76.49138 34983 ft 470 kts 34°
2026-05-05 10:05 38.95928 -76.44048 34986 ft 469 kts 34°
2026-05-05 10:06 39.01117 -76.38952 34989 ft 469 kts 34°
2026-05-05 10:06 39.06160 -76.33686 34912 ft 471 kts 39°
2026-05-05 10:07 39.08602 -76.30866 34297 ft 475 kts 40°
2026-05-05 10:07 39.11035 -76.27950 33326 ft 481 kts 41°
2026-05-05 10:07 39.13475 -76.24979 32415 ft 484 kts 40°
2026-05-05 10:07 39.15938 -76.21990 31476 ft 488 kts 40°
2026-05-05 10:08 39.18437 -76.19005 30518 ft 492 kts 39°
2026-05-05 10:08 39.20985 -76.16007 29359 ft 498 kts 38°
2026-05-05 10:08 39.23563 -76.13002 28273 ft 499 kts 39°
2026-05-05 10:08 39.26118 -76.10029 27175 ft 493 kts 39°
2026-05-05 10:09 39.28682 -76.07044 26182 ft 496 kts 39°
2026-05-05 10:09 39.31237 -76.04062 25905 ft 495 kts 39°
2026-05-05 10:09 39.33759 -76.01110 25661 ft 496 kts 39°
2026-05-05 10:09 39.36311 -75.98107 25315 ft 497 kts 39°
2026-05-05 10:10 39.38855 -75.95101 24881 ft 494 kts 39°
2026-05-05 10:10 39.41387 -75.92101 24459 ft 492 kts 40°
2026-05-05 10:10 39.43909 -75.89105 24021 ft 490 kts 40°
2026-05-05 10:10 39.45569 -75.87137 23745 ft 488 kts 40°
2026-05-05 10:11 39.48068 -75.84176 23290 ft 486 kts 40°
2026-05-05 10:11 39.50554 -75.81236 22867 ft 483 kts 40°
2026-05-05 10:11 39.53034 -75.78306 22440 ft 480 kts 40°
2026-05-05 10:11 39.55496 -75.75387 22033 ft 477 kts 40°
2026-05-05 10:12 39.57933 -75.72493 21617 ft 474 kts 40°
2026-05-05 10:12 39.60359 -75.69607 21213 ft 472 kts 40°
2026-05-05 10:12 39.62770 -75.66736 20801 ft 469 kts 40°
2026-05-05 10:12 39.65162 -75.63883 20393 ft 466 kts 40°
2026-05-05 10:13 39.67547 -75.61041 19998 ft 464 kts 40°
2026-05-05 10:13 39.69915 -75.58212 19530 ft 461 kts 40°
2026-05-05 10:13 39.72230 -75.55431 19052 ft 458 kts 40°
2026-05-05 10:13 39.74565 -75.52619 18604 ft 456 kts 40°
2026-05-05 10:14 39.76878 -75.49823 18132 ft 453 kts 40°
2026-05-05 10:14 39.79175 -75.47042 17666 ft 450 kts 40°
2026-05-05 10:14 39.81466 -75.44267 17259 ft 449 kts 40°
2026-05-05 10:14 39.83740 -75.41512 16803 ft 446 kts 40°
2026-05-05 10:15 39.86008 -75.38768 16355 ft 444 kts 40°
2026-05-05 10:15 39.88242 -75.36061 16077 ft 432 kts 40°
2026-05-05 10:15 39.90395 -75.33442 15947 ft 416 kts 40°
2026-05-05 10:15 39.92468 -75.30917 15815 ft 399 kts 40°
2026-05-05 10:16 39.94423 -75.28532 15680 ft 371 kts 40°
2026-05-05 10:16 39.96249 -75.26304 15351 ft 352 kts 40°
2026-05-05 10:16 39.98022 -75.24151 14744 ft 345 kts 40°
2026-05-05 10:16 39.99782 -75.22019 14239 ft 345 kts 40°
2026-05-05 10:17 40.01529 -75.19902 13870 ft 342 kts 40°
2026-05-05 10:17 40.03270 -75.17786 13468 ft 341 kts 40°
2026-05-05 10:17 40.04997 -75.15682 13074 ft 338 kts 40°
2026-05-05 10:17 40.06713 -75.13593 12677 ft 336 kts 40°
2026-05-05 10:18 40.08415 -75.11515 12292 ft 334 kts 40°
2026-05-05 10:18 40.10106 -75.09447 11909 ft 332 kts 40°
2026-05-05 10:18 40.11784 -75.07393 11517 ft 328 kts 41°
2026-05-05 10:18 40.13418 -75.05388 10952 ft 325 kts 41°
2026-05-05 10:19 40.15072 -75.03359 10540 ft 321 kts 41°
2026-05-05 10:19 40.16666 -75.01406 10267 ft 317 kts 41°
2026-05-05 10:19 40.18267 -74.99445 9978 ft 313 kts 41°
2026-05-05 10:19 40.19856 -74.97498 9676 ft 311 kts 41°
2026-05-05 10:20 40.21435 -74.95563 9379 ft 310 kts 41°
2026-05-05 10:20 40.23004 -74.93640 9091 ft 309 kts 41°
2026-05-05 10:20 40.24569 -74.91715 8797 ft 308 kts 41°
2026-05-05 10:20 40.26113 -74.89774 8519 ft 308 kts 43°
2026-05-05 10:21 40.27597 -74.87759 8241 ft 307 kts 45°
2026-05-05 10:21 40.29046 -74.85707 7949 ft 306 kts 45°
2026-05-05 10:21 40.30474 -74.83658 7851 ft 306 kts 45°
2026-05-05 10:21 40.31914 -74.81598 7746 ft 306 kts 45°
2026-05-05 10:22 40.33354 -74.79551 7649 ft 305 kts 45°
2026-05-05 10:22 40.34793 -74.77507 7573 ft 306 kts 45°
2026-05-05 10:22 40.36220 -74.75487 7470 ft 305 kts 45°
2026-05-05 10:22 40.37661 -74.73455 7371 ft 304 kts 45°
2026-05-05 10:23 40.39123 -74.71444 7270 ft 304 kts 41°
2026-05-05 10:23 40.40724 -74.69647 7169 ft 302 kts 33°
2026-05-05 10:23 40.42465 -74.68136 7070 ft 299 kts 26°
2026-05-05 10:23 40.44312 -74.66915 6973 ft 296 kts 19°
2026-05-05 10:24 40.46238 -74.65995 6880 ft 293 kts 11°
2026-05-05 10:24 40.48207 -74.65304 6780 ft 294 kts 14°
2026-05-05 10:24 40.50025 -74.64108 6680 ft 298 kts 26°
2026-05-05 10:24 40.51799 -74.62698 6600 ft 298 kts 27°
2026-05-05 10:25 40.53588 -74.61245 6505 ft 298 kts 27°
2026-05-05 10:25 40.55317 -74.59830 6407 ft 296 kts 27°
2026-05-05 10:25 40.57065 -74.58391 6312 ft 296 kts 27°
2026-05-05 10:25 40.58804 -74.56955 6216 ft 295 kts 27°
2026-05-05 10:26 40.60483 -74.55387 6108 ft 298 kts 36°
2026-05-05 10:26 40.62058 -74.53608 6006 ft 298 kts 37°
2026-05-05 10:26 40.63616 -74.51809 5900 ft 298 kts 38°
2026-05-05 10:26 40.65175 -74.50007 5802 ft 298 kts 38°
2026-05-05 10:27 40.66727 -74.48210 5692 ft 298 kts 38°
2026-05-05 10:27 40.68285 -74.46412 5600 ft 298 kts 38°
2026-05-05 10:27 40.69838 -74.44616 5496 ft 298 kts 38°
2026-05-05 10:27 40.71393 -74.42822 5338 ft 297 kts 37°
2026-05-05 10:28 40.72948 -74.41020 5174 ft 298 kts 38°
2026-05-05 10:28 40.74502 -74.39215 4989 ft 298 kts 38°
2026-05-05 10:28 40.76058 -74.37409 4815 ft 298 kts 38°
2026-05-05 10:28 40.77611 -74.35603 4611 ft 297 kts 38°
2026-05-05 10:29 40.79157 -74.33811 4458 ft 296 kts 38°
2026-05-05 10:29 40.80704 -74.32024 4282 ft 295 kts 38°
2026-05-05 10:29 40.82251 -74.30244 4093 ft 294 kts 38°
2026-05-05 10:29 40.83796 -74.28472 3922 ft 294 kts 37°
2026-05-05 10:30 40.85339 -74.26699 3747 ft 294 kts 38°
2026-05-05 10:30 40.86823 -74.24835 3562 ft 296 kts 51°
2026-05-05 10:30 40.87763 -74.22455 3251 ft 299 kts 75°
2026-05-05 10:30 40.87934 -74.19745 2854 ft 295 kts 100°
2026-05-05 10:31 40.87451 -74.17149 2556 ft 285 kts 116°
2026-05-05 10:31 40.86551 -74.14958 2434 ft 259 kts 131°
2026-05-05 10:31 40.85413 -74.13260 2348 ft 236 kts 145°
2026-05-05 10:31 40.84129 -74.12008 2272 ft 225 kts 157°
2026-05-05 10:32 40.82731 -74.11152 2194 ft 219 kts 168°
2026-05-05 10:32 40.81272 -74.10686 2115 ft 214 kts 179°
2026-05-05 10:32 40.79844 -74.10596 2048 ft 199 kts 189°
2026-05-05 10:32 40.78509 -74.10833 1863 ft 190 kts 199°
2026-05-05 10:33 40.77294 -74.11359 1661 ft 175 kts 208°
2026-05-05 10:33 40.76269 -74.12001 1453 ft 152 kts 210°
2026-05-05 10:33 40.75351 -74.12585 1247 ft 140 kts 210°
2026-05-05 10:33 40.74485 -74.13138 1056 ft 137 kts 210°
2026-05-05 10:34 40.73633 -74.13682 871 ft 135 kts 208°
2026-05-05 10:34 40.72803 -74.14212 694 ft 135 kts 207°
2026-05-05 10:34 40.71940 -74.14763 464 ft 135 kts 207°
2026-05-05 10:34 40.71111 -74.15294 267 ft 133 kts 207°
2026-05-05 10:35 40.70273 -74.15819 108 ft 133 kts 209°
2026-05-05 10:35 40.69453 -74.16349 29 ft 124 kts 205°
2026-05-05 10:35 40.68804 -74.16759 19 ft 79 kts 206°
2026-05-05 10:35 40.68463 -74.16976 21 ft 30 kts 205°
2026-05-05 10:36 40.68396 -74.17022 22 ft 8 kts 211°
2026-05-05 10:36 40.68328 -74.17089 21 ft 14 kts 221°
2026-05-05 10:36 40.68256 -74.17193 20 ft 16 kts 234°
2026-05-05 10:36 40.68197 -74.17307 21 ft 15 kts 236°
2026-05-05 10:37 40.68147 -74.17414 18 ft 13 kts 256°
2026-05-05 10:37 40.68174 -74.17530 19 ft 14 kts 293°
2026-05-05 10:37 40.68217 -74.17645 20 ft 15 kts 299°
2026-05-05 10:37 40.68306 -74.17722 21 ft 15 kts 349°
2026-05-05 10:38 40.68405 -74.17675 24 ft 15 kts 26°
2026-05-05 10:38 40.68499 -74.17614 30 ft 16 kts 26°
2026-05-05 10:38 40.68604 -74.17547 25 ft 18 kts 26°
2026-05-05 10:38 40.68716 -74.17476 27 ft 16 kts 25°
2026-05-05 10:39 40.68794 -74.17431 23 ft 10 kts 10°
2026-05-05 10:39 40.68845 -74.17495 22 ft 12 kts 296°
2026-05-05 10:39 40.68887 -74.17563 22 ft 8 kts 352°
2026-05-05 10:39 40.68935 -74.17532 21 ft 5 kts 27°
2026-05-05 10:40 40.68936 -74.17531 21 ft 0 kts 27°